• In Hungary
  • List of Countries
  • For 7 days
  • Water Temperature
  • Satellite Maps
  • Weather Map
  • News
  • Weather Widgets
  • user-avatar
    Login

    Hourly Weather Nowe Bystre

    Today, 20 February, Tuesday

    Time Temperature Precipitation Wind Pressure Humidity
    00:00 -7°C° 0 mm 1 mps 687 mmHg 84%
    01:00 -7°C° 0 mm 1 mps 686 mmHg 83%
    02:00 -7°C° 0 mm 1 mps 686 mmHg 81%
    03:00 -7°C° 0 mm 1 mps 686 mmHg 80%
    04:00 -7°C° 0 mm 1 mps 685 mmHg 79%
    05:00 -7°C° 0 mm 1 mps 685 mmHg 79%
    06:00 -7°C° 0 mm 1 mps 685 mmHg 79%
    07:00 -7°C° 0 mm 1 mps 685 mmHg 79%
    08:00 -6°C° 0 mm 1 mps 685 mmHg 76%
    09:00 -3°C° 0 mm 1 mps 686 mmHg 74%
    10:00 -1°C° 0 mm 1 mps 686 mmHg 71%
    11:00 0°C° 0 mm 1 mps 686 mmHg 71%
    12:00 0°C° 0 mm 1 mps 686 mmHg 71%
    13:00 -1°C° 0 mm 2 mps 686 mmHg 71%
    14:00 -2°C° 0 mm 2 mps 685 mmHg 75%
    15:00 -3°C° 0 mm 2 mps 685 mmHg 79%
    16:00 -3°C° 0 mm 2 mps 685 mmHg 83%
    17:00 -4°C° 0 mm 2 mps 685 mmHg 87%
    18:00 -3°C° 0 mm 1 mps 685 mmHg 90%
    19:00 -4°C° 0 mm 1 mps 684 mmHg 93%
    20:00 -4°C° 0 mm 1 mps 685 mmHg 93%
    21:00 -4°C° 0 mm 1 mps 685 mmHg 93%
    22:00 -6°C° 0 mm 1 mps 685 mmHg 92%
    23:00 -6°C° 0 mm 1 mps 685 mmHg 92%

    Tomorrow, 21 February, Wednesday

    Time Temperature Precipitation Wind Pressure Humidity
    00:00 -6°C° 0 mm 1 mps 685 mmHg 92%
    01:00 -6°C° 0 mm 1 mps 685 mmHg 92%
    02:00 -6°C° 0 mm 1 mps 685 mmHg 93%
    03:00 -7°C° 0 mm 1 mps 685 mmHg 93%
    04:00 -7°C° 0 mm 1 mps 685 mmHg 93%
    05:00 -7°C° 0 mm 1 mps 685 mmHg 93%
    06:00 -7°C° 0 mm 1 mps 685 mmHg 93%
    07:00 -7°C° 0 mm 1 mps 685 mmHg 93%
    08:00 -7°C° 0 mm 2 mps 685 mmHg 90%
    09:00 -6°C° 0 mm 2 mps 685 mmHg 87%
    10:00 -5°C° 0 mm 2 mps 686 mmHg 84%
    11:00 -5°C° 0 mm 2 mps 686 mmHg 83%
    12:00 -4°C° 0 mm 2 mps 686 mmHg 82%
    13:00 -4°C° 0 mm 2 mps 686 mmHg 80%
    14:00 -4°C° 0 mm 2 mps 686 mmHg 82%
    15:00 -5°C° 0 mm 2 mps 686 mmHg 83%
    16:00 -5°C° 0 mm 2 mps 686 mmHg 84%
    17:00 -6°C° 0 mm 2 mps 686 mmHg 87%
    18:00 -7°C° 0 mm 2 mps 686 mmHg 89%
    19:00 -8°C° 0 mm 2 mps 686 mmHg 91%
    20:00 -8°C° 0 mm 2 mps 686 mmHg 91%
    21:00 -8°C° 0 mm 2 mps 686 mmHg 91%
    22:00 -8°C° 0 mm 2 mps 686 mmHg 91%
    23:00 -8°C° 0 mm 2 mps 686 mmHg 91%

    Day after tomorrow, 22 February, Thursday

    Time Temperature Precipitation Wind Pressure Humidity
    00:00 -8°C° 0 mm 2 mps 686 mmHg 92%
    01:00 -8°C° 0 mm 2 mps 686 mmHg 92%
    02:00 -8°C° 0 mm 2 mps 686 mmHg 92%
    03:00 -8°C° 0 mm 2 mps 686 mmHg 92%
    04:00 -8°C° 0 mm 2 mps 686 mmHg 92%
    05:00 -8°C° 0 mm 2 mps 686 mmHg 92%
    06:00 -8°C° 0 mm 2 mps 686 mmHg 92%
    07:00 -8°C° 0 mm 2 mps 686 mmHg 92%
    08:00 -8°C° 0 mm 3 mps 686 mmHg 88%
    09:00 -7°C° 0 mm 3 mps 686 mmHg 85%
    10:00 -6°C° 0 mm 3 mps 687 mmHg 82%
    11:00 -6°C° 0 mm 3 mps 687 mmHg 81%
    12:00 -6°C° 0 mm 3 mps 687 mmHg 79%
    13:00 -5°C° 0 mm 3 mps 687 mmHg 78%
    14:00 -5°C° 0 mm 3 mps 686 mmHg 79%
    15:00 -6°C° 0 mm 3 mps 686 mmHg 81%
    16:00 -6°C° 0 mm 3 mps 686 mmHg 82%
    17:00 -7°C° 0 mm 3 mps 686 mmHg 84%
    18:00 -8°C° 0 mm 3 mps 686 mmHg 87%
    19:00 -8°C° 0 mm 3 mps 686 mmHg 90%
    20:00 -9°C° 0 mm 3 mps 686 mmHg 90%
    21:00 -8°C° 0 mm 2 mps 686 mmHg 90%
    22:00 -8°C° 0 mm 2 mps 686 mmHg 90%
    23:00 -8°C° 0 mm 2 mps 686 mmHg 90%

    23 February, Friday

    Time Temperature Precipitation Wind Pressure Humidity
    00:00 -8°C° 0 mm 2 mps 686 mmHg 91%
    01:00 -8°C° 0 mm 2 mps 686 mmHg 91%
    02:00 -8°C° 0 mm 2 mps 686 mmHg 91%
    03:00 -9°C° 0 mm 2 mps 686 mmHg 91%
    04:00 -9°C° 0 mm 2 mps 686 mmHg 91%
    05:00 -9°C° 0 mm 2 mps 686 mmHg 91%
    06:00 -9°C° 0 mm 2 mps 686 mmHg 91%
    07:00 -10°C° 0 mm 3 mps 686 mmHg 91%
    08:00 -9°C° 0 mm 3 mps 687 mmHg 87%
    09:00 -8°C° 0 mm 3 mps 687 mmHg 83%
    10:00 -7°C° 0 mm 3 mps 687 mmHg 79%
    11:00 -7°C° 0 mm 3 mps 687 mmHg 78%
    12:00 -7°C° 0 mm 3 mps 687 mmHg 77%
    13:00 -6°C° 0 mm 3 mps 687 mmHg 75%
    14:00 -7°C° 0 mm 3 mps 687 mmHg 76%
    15:00 -7°C° 0 mm 3 mps 687 mmHg 77%
    16:00 -8°C° 0 mm 3 mps 687 mmHg 77%
    17:00 -9°C° 0 mm 3 mps 687 mmHg 79%
    18:00 -10°C° 0 mm 3 mps 687 mmHg 81%
    19:00 -12°C° 0 mm 3 mps 688 mmHg 83%
    20:00 -13°C° 0 mm 3 mps 688 mmHg 83%
    21:00 -13°C° 0 mm 3 mps 688 mmHg 83%
    22:00 -13°C° 0 mm 2 mps 688 mmHg 83%
    23:00 -13°C° 0 mm 2 mps 688 mmHg 82%

    24 February, Saturday

    Time Temperature Precipitation Wind Pressure Humidity
    00:00 -14°C° 0 mm 2 mps 688 mmHg 82%
    01:00 -14°C° 0 mm 2 mps 688 mmHg 82%
    02:00 -15°C° 0 mm 2 mps 688 mmHg 82%
    03:00 -15°C° 0 mm 2 mps 688 mmHg 82%
    04:00 -15°C° 0 mm 2 mps 688 mmHg 82%
    05:00 -15°C° 0 mm 2 mps 688 mmHg 82%
    06:00 -15°C° 0 mm 2 mps 688 mmHg 82%
    07:00 -15°C° 0 mm 2 mps 688 mmHg 83%
    08:00 -15°C° 0 mm 3 mps 689 mmHg 79%
    09:00 -14°C° 0 mm 3 mps 689 mmHg 75%
    10:00 -15°C° 0 mm 4 mps 690 mmHg 71%
    11:00 -14°C° 0 mm 4 mps 690 mmHg 69%
    12:00 -14°C° 0 mm 4 mps 690 mmHg 68%
    13:00 -14°C° 0 mm 4 mps 690 mmHg 66%
    14:00 -14°C° 0 mm 4 mps 690 mmHg 67%
    15:00 -14°C° 0 mm 4 mps 689 mmHg 67%
    16:00 -15°C° 0 mm 4 mps 689 mmHg 68%
    17:00 -15°C° 0 mm 3 mps 689 mmHg 72%
    18:00 -15°C° 0 mm 3 mps 689 mmHg 76%
    19:00 -16°C° 0 mm 3 mps 689 mmHg 80%
    20:00 -17°C° 0 mm 3 mps 689 mmHg 82%
    21:00 -16°C° 0 mm 2 mps 689 mmHg 84%
    22:00 -16°C° 0 mm 2 mps 689 mmHg 86%
    23:00 -16°C° 0 mm 2 mps 689 mmHg 87%

    25 February, Sunday

    Time Temperature Precipitation Wind Pressure Humidity
    00:00 -16°C° 0 mm 2 mps 689 mmHg 87%
    01:00 -16°C° 0 mm 2 mps 689 mmHg 88%
    02:00 -16°C° 0 mm 2 mps 688 mmHg 88%
    03:00 -17°C° 0 mm 2 mps 688 mmHg 89%
    04:00 -17°C° 0 mm 2 mps 688 mmHg 89%
    05:00 -17°C° 0 mm 2 mps 688 mmHg 89%
    06:00 -17°C° 0 mm 2 mps 688 mmHg 89%
    07:00 -17°C° 0 mm 2 mps 688 mmHg 88%
    08:00 -17°C° 0 mm 3 mps 688 mmHg 83%
    09:00 -16°C° 0 mm 3 mps 688 mmHg 78%
    10:00 -15°C° 0 mm 3 mps 689 mmHg 73%
    11:00 -15°C° 0 mm 4 mps 688 mmHg 71%
    12:00 -15°C° 0 mm 4 mps 688 mmHg 70%
    13:00 -14°C° 0 mm 4 mps 688 mmHg 68%
    14:00 -14°C° 0 mm 4 mps 688 mmHg 69%
    15:00 -15°C° 0 mm 4 mps 688 mmHg 70%
    16:00 -15°C° 0 mm 4 mps 687 mmHg 71%
    17:00 -15°C° 0 mm 3 mps 687 mmHg 75%
    18:00 -16°C° 0 mm 3 mps 687 mmHg 80%
    19:00 -17°C° 0 mm 3 mps 687 mmHg 84%
    20:00 -17°C° 0 mm 3 mps 687 mmHg 84%
    21:00 -18°C° 0 mm 3 mps 687 mmHg 85%
    22:00 -18°C° 0 mm 3 mps 687 mmHg 86%
    23:00 -18°C° 0 mm 3 mps 687 mmHg 85%
    Show more